Santuari del Coll - Susqueda





Hora UTC 22:05
Temperatura 10.6 ºC
Humitat 84.0 %
Pressió 1025.5 hPa
Pluja 0.2 mm
Velocitat vent 4.8 km/h
Direcció vent WSW

Dades diàries 2020-10-29



Hora UTC (hivern +1h; estiu +2h)
Temperatura (ºC) Humitat (%) Pressió (hPa) Velocitat vent (km/h) Precipitació (mm)
Hora UTC Aire Humitat Pressió Vel. Dir. Vel. Max Dir. Intent. màx 5 min.
00:05 9.6 92.0 1022.8 1.6 SSE 1.6 0.0
00:10 9.5 92.0 1022.8 4.8 SSE 9.7 0.0
00:15 9.4 92.0 1022.8 6.4 SSE 9.7 0.0
00:20 9.4 92.0 1022.8 0.0 WNW 6.4 0.0
00:25 9.4 92.0 1022.7 1.6 WSW 11.3 0.0
00:30 9.4 92.0 1022.7 1.6 ESE 11.3 0.0
00:35 9.4 92.0 1022.6 3.2 NNW 11.3 0.0
00:40 9.4 92.0 1022.6 4.8 SE 11.3 0.0
00:45 9.3 92.0 1022.7 0.0 ENE 11.3 0.0
00:45 9.3 93.0 1022.7 1.6 NNE 9.7 0.0
00:55 9.3 93.0 1022.8 4.8 SSE 9.7 0.0
01:00 9.3 93.0 1022.9 1.6 NE 8.0 0.0
01:05 9.2 93.0 1022.8 0.0 SSE 8.0 0.0
01:10 9.2 93.0 1022.8 1.6 SSE 8.0 0.0
01:15 9.2 93.0 1022.9 1.6 S 11.3 0.0
01:20 9.3 93.0 1022.8 1.6 NE 9.7 0.0
01:25 9.3 93.0 1022.8 4.8 SSE 9.7 0.0
01:30 9.2 93.0 1022.8 4.8 SSE 11.3 0.0
01:35 9.2 93.0 1022.8 4.8 S 11.3 0.0
01:40 9.1 93.0 1022.8 1.6 S 9.7 0.0
01:45 8.9 92.0 1022.9 3.2 SW 4.8 0.0
01:50 8.7 92.0 1022.7 0.0 SW 4.8 0.0
01:55 8.8 94.0 1022.5 4.8 S 11.3 0.0
02:00 9.0 94.0 1022.3 6.4 W 12.9 0.0
02:05 9.1 94.0 1022.2 3.2 NE 12.9 0.0
02:10 9.1 94.0 1022.4 1.6 NNW 12.9 0.0
02:15 9.1 94.0 1022.6 1.6 SSW 11.3 0.0
02:20 9.1 94.0 1022.5 3.2 S 11.3 0.0
02:25 9.0 93.0 1022.3 4.8 SSE 9.7 0.0
02:30 9.0 93.0 1022.2 3.2 ENE 11.3 0.0
02:30 9.0 93.0 1022.3 4.8 SSE 11.3 0.0
02:40 8.9 93.0 1022.4 0.0 SE 11.3 0.0
02:45 8.9 93.0 1022.5 0.0 SE 6.4 0.0
02:50 8.8 93.0 1022.5 0.0 SW 3.2 0.0
02:55 8.6 93.0 1022.6 1.6 SW 4.8 0.0
03:00 8.3 92.0 1022.7 0.0 SW 4.8 0.0
03:00 8.1 93.0 1022.5 1.6 SW 3.2 0.0
03:05 8.1 94.0 1022.5 1.6 SW 3.2 0.0
03:10 8.2 94.0 1022.3 0.0 SW 3.2 0.0
03:15 8.3 94.0 1022.3 0.0 SW 3.2 0.0
03:20 8.2 93.0 1022.5 1.6 SW 3.2 0.0
03:25 8.3 94.0 1022.5 0.0 SW 3.2 0.0
03:30 8.4 94.0 1022.5 0.0 SW 1.6 0.0
03:35 8.3 93.0 1022.5 1.6 SW 1.6 0.0
03:40 8.2 93.0 1022.5 3.2 W 4.8 0.0
03:45 8.2 94.0 1022.7 0.0 WSW 4.8 0.0
03:50 8.2 94.0 1022.8 3.2 WNW 9.7 0.0
03:55 8.2 94.0 1023.0 3.2 W 9.7 0.0
04:00 8.1 94.0 1023.1 1.6 WSW 6.4 0.0
04:05 8.1 94.0 1023.1 0.0 S 9.7 0.0
04:10 8.2 94.0 1023.1 1.6 W 8.0 0.2
04:15 8.2 94.0 1023.1 6.4 WSW 8.0 0.0
04:20 8.2 94.0 1023.1 4.8 W 8.0 0.0
04:25 8.2 94.0 1023.1 1.6 WSW 6.4 0.0
04:30 8.2 94.0 1023.2 3.2 WSW 12.9 0.0
04:35 8.2 95.0 1023.2 1.6 WSW 12.9 0.0
04:40 8.3 95.0 1023.4 0.0 W 4.8 0.0
04:45 8.3 95.0 1023.4 0.0 WSW 4.8 0.0
04:50 8.4 95.0 1023.4 0.0 SW 3.2 0.0
04:55 8.6 95.0 1023.5 1.6 SSE 3.2 0.0
05:00 8.6 95.0 1023.6 0.0 S 3.2 0.0
05:05 8.7 94.0 1023.7 0.0 SW 3.2 0.0
05:10 8.6 94.0 1023.6 0.0 SW 3.2 0.0
05:15 8.6 94.0 1023.3 1.6 S 6.4 0.0
05:20 8.6 94.0 1023.4 0.0 SSE 6.4 0.0
05:25 8.6 95.0 1023.5 1.6 ESE 4.8 0.0
05:30 8.7 95.0 1023.6 3.2 E 3.2 0.0
05:35 8.8 95.0 1023.6 4.8 NNW 12.9 0.0
05:40 8.7 95.0 1023.5 1.6 W 12.9 0.0
05:45 8.8 95.0 1023.4 0.0 ESE 6.4 0.0
05:50 8.7 95.0 1023.3 4.8 ESE 6.4 0.0
05:55 8.8 95.0 1023.4 4.8 NNE 6.4 0.0
06:00 8.8 95.0 1023.4 0.0 NW 4.8 0.0
06:05 8.8 95.0 1023.5 3.2 W 3.2 0.0
06:10 8.8 95.0 1023.5 1.6 W 3.2 0.0
06:15 8.8 95.0 1023.5 0.0 W 3.2 0.0
06:20 8.8 95.0 1023.4 3.2 SE 3.2 0.0
06:25 8.8 96.0 1023.5 1.6 N 4.8 0.0
06:30 8.8 95.0 1023.6 0.0 NNW 6.4 0.0
06:35 8.8 96.0 1023.6 1.6 SSE 8.0 0.0
06:40 8.8 96.0 1023.8 1.6 SSE 8.0 0.0
06:45 8.8 96.0 1023.8 0.0 NNW 4.8 0.0
06:50 8.8 96.0 1023.9 0.0 NNW 4.8 0.0
06:55 8.8 96.0 1024.0 1.6 NNW 4.8 0.0
07:00 8.8 96.0 1024.1 0.0 E 4.8 0.0
07:05 8.8 96.0 1024.1 0.0 E 3.2 0.0
07:10 8.8 96.0 1024.2 0.0 E 4.8 0.0
07:15 8.8 96.0 1024.3 0.0 E 4.8 0.0
07:20 8.8 96.0 1024.3 0.0 ENE 4.8 0.0
07:25 8.9 96.0 1024.6 1.6 ESE 4.8 0.0
07:30 8.9 96.0 1024.5 1.6 ESE 6.4 0.0
07:35 8.9 96.0 1024.4 6.4 ESE 6.4 0.0
07:40 8.9 96.0 1024.4 0.0 ESE 9.7 0.0
07:45 9.0 96.0 1024.6 0.0 ESE 4.8 0.0
07:50 9.0 96.0 1024.4 0.0 E 8.0 0.0
07:55 9.1 96.0 1024.4 1.6 SSW 8.0 0.0
08:00 9.1 96.0 1024.5 3.2 ESE 4.8 0.0
08:05 9.1 96.0 1024.5 3.2 ESE 4.8 0.0
08:10 9.1 96.0 1024.6 0.0 ESE 6.4 0.0
08:15 9.1 96.0 1024.5 1.6 ESE 4.8 0.0
08:25 9.1 96.0 1024.4 0.0 E 9.7 0.0
08:30 9.2 96.0 1024.6 3.2 E 9.7 0.0
08:35 9.3 97.0 1024.6 0.0 E 6.4 0.0
08:40 9.4 97.0 1024.7 1.6 E 3.2 0.0
08:45 9.4 96.0 1024.6 0.0 E 3.2 0.0
08:50 9.6 96.0 1024.7 1.6 SE 14.5 0.0
08:55 9.6 96.0 1025.0 1.6 SE 14.5 0.0
09:00 9.7 96.0 1025.2 1.6 SSE 14.5 0.0
09:00 9.6 96.0 1025.2 0.0 NW 14.5 0.0
09:10 9.6 96.0 1025.3 0.0 W 4.8 0.0
09:15 9.5 96.0 1025.4 0.0 WNW 6.4 0.0
09:20 9.4 96.0 1025.5 1.6 NW 6.4 0.0
09:25 9.4 96.0 1025.6 0.0 SSW 4.8 0.0
09:30 9.4 96.0 1025.5 0.0 SSW 1.6 0.0
09:35 9.5 96.0 1025.5 3.2 E 6.4 0.0
09:40 9.5 96.0 1025.6 0.0 NW 8.0 0.0
09:45 9.7 96.0 1025.5 0.0 WSW 8.0 0.0
09:50 9.7 96.0 1025.4 0.0 SW 4.8 0.0
09:55 9.8 96.0 1025.4 3.2 SW 8.0 0.0
10:00 10.2 96.0 1025.3 0.0 NE 4.8 0.0
10:05 10.7 96.0 1025.4 3.2 NNW 6.4 0.0
10:10 10.8 96.0 1025.3 0.0 SSW 9.7 0.0
10:15 10.9 94.0 1025.3 0.0 ESE 11.3 0.0
10:20 11.3 94.0 1025.3 11.3 W 12.9 0.0
10:25 11.7 92.0 1025.3 6.4 WSW 14.5 0.0
10:30 12.1 91.0 1025.3 0.0 WSW 14.5 0.0
10:35 12.1 90.0 1025.3 6.4 SSE 11.3 0.0
10:40 12.1 89.0 1025.2 4.8 WNW 17.7 0.0
10:40 12.1 89.0 1025.1 0.0 SE 17.7 0.0
10:45 12.2 88.0 1025.1 0.0 ESE 20.9 0.0
10:50 12.1 88.0 1025.1 1.6 SSW 20.9 0.0
10:55 12.2 88.0 1025.1 6.4 NW 12.9 0.0
11:00 12.6 88.0 1025.0 1.6 SSE 12.9 0.0
11:05 12.9 86.0 1025.0 0.0 SE 14.5 0.0
11:10 13.2 85.0 1025.0 3.2 ESE 14.5 0.0
11:15 13.5 83.0 1025.0 3.2 W 11.3 0.0
11:20 13.3 83.0 1025.0 1.6 SW 11.3 0.0
11:25 13.2 83.0 1024.9 3.2 ENE 9.7 0.0
11:30 13.1 84.0 1024.9 1.6 SSW 6.4 0.0
11:35 13.3 83.0 1024.8 4.8 SE 11.3 0.0
11:40 13.4 83.0 1024.8 0.0 SE 11.3 0.0
11:45 13.6 83.0 1024.8 0.0 NW 4.8 0.0
11:50 13.6 82.0 1024.7 1.6 SSE 4.8 0.0
11:55 13.4 81.0 1024.5 1.6 NNE 4.8 0.0
12:00 13.3 82.0 1024.6 1.6 WNW 4.8 0.0
12:05 13.3 82.0 1024.6 3.2 W 9.7 0.0
12:10 13.4 82.0 1024.6 0.0 SE 6.4 0.0
12:15 13.6 80.0 1024.5 3.2 W 8.0 0.0
12:20 13.7 80.0 1024.4 0.0 SW 8.0 0.0
12:25 13.6 80.0 1024.4 1.6 NW 9.7 0.0
12:30 13.4 79.0 1024.3 1.6 W 6.4 0.0
12:35 13.3 80.0 1024.3 1.6 WNW 6.4 0.0
12:40 13.3 81.0 1024.2 4.8 NNW 6.4 0.0
12:45 13.3 80.0 1024.1 6.4 WNW 12.9 0.0
12:50 13.4 80.0 1024.1 1.6 SW 12.9 0.0
12:55 13.4 80.0 1024.2 1.6 S 11.3 0.0
13:00 13.2 80.0 1024.1 4.8 W 14.5 0.0
13:05 13.1 81.0 1024.1 3.2 NNW 14.5 0.0
13:10 12.9 81.0 1024.2 1.6 WNW 12.9 0.0
13:15 12.7 81.0 1024.1 4.8 WSW 12.9 0.0
13:20 12.4 82.0 1024.0 0.0 WNW 12.9 0.0
13:25 12.7 82.0 1024.0 11.3 WNW 12.9 0.0
13:30 13.1 82.0 1024.1 1.6 SSW 12.9 0.0
13:35 13.5 80.0 1024.2 6.4 SE 9.7 0.0
13:40 13.5 79.0 1024.1 1.6 SSE 8.0 0.0
13:45 13.8 78.0 1024.1 1.6 N 8.0 0.0
13:50 13.6 77.0 1024.1 1.6 WSW 11.3 0.0
13:55 13.4 78.0 1024.1 4.8 SSE 12.9 0.0
14:00 13.3 78.0 1024.1 3.2 SSW 9.7 0.0
14:05 13.4 78.0 1024.2 1.6 SW 9.7 0.0
14:10 13.6 78.0 1024.3 1.6 SSE 4.8 0.0
14:15 13.7 77.0 1024.2 3.2 SSW 9.7 0.0
14:20 13.8 77.0 1024.2 3.2 S 8.0 0.0
14:25 13.7 77.0 1024.3 3.2 ESE 11.3 0.0
14:30 13.6 77.0 1024.2 3.2 SE 11.3 0.0
14:35 13.6 77.0 1024.1 1.6 SW 4.8 0.0
14:40 13.6 77.0 1024.2 0.0 E 4.8 0.0
14:45 13.6 77.0 1024.3 0.0 S 8.0 0.0
14:50 13.6 77.0 1024.3 1.6 W 8.0 0.0
14:55 13.4 77.0 1024.3 1.6 ENE 6.4 0.0
15:00 13.3 77.0 1024.5 6.4 ESE 6.4 0.0
15:05 13.1 78.0 1024.4 4.8 SSE 6.4 0.0
15:10 12.7 79.0 1024.5 3.2 ESE 6.4 0.0
15:15 12.6 79.0 1024.5 1.6 S 6.4 0.0
15:20 12.3 80.0 1024.6 8.0 SSE 9.7 0.0
15:25 12.1 81.0 1024.5 0.0 SSE 8.0 0.0
15:30 11.9 81.0 1024.5 3.2 W 16.1 0.0
15:35 11.9 82.0 1024.6 0.0 WSW 16.1 0.0
15:40 11.8 82.0 1024.7 1.6 ESE 9.7 0.0
15:45 11.7 82.0 1024.8 1.6 ENE 4.8 0.0
15:50 11.6 83.0 1024.8 3.2 S 9.7 0.0
15:55 11.6 83.0 1024.6 3.2 SSE 9.7 0.0
16:00 11.6 83.0 1024.6 3.2 S 11.3 0.0
16:05 11.6 83.0 1024.5 1.6 S 11.3 0.0
16:10 11.5 83.0 1024.6 3.2 SW 9.7 0.0
16:15 11.4 83.0 1024.6 4.8 WSW 11.3 0.0
16:20 11.3 84.0 1024.7 6.4 SSE 11.3 0.0
16:25 11.3 84.0 1024.7 6.4 WSW 14.5 0.0
16:30 11.2 84.0 1024.7 3.2 W 16.1 0.0
16:35 11.1 85.0 1024.7 3.2 NW 16.1 0.0
16:45 11.0 85.0 1024.7 0.0 WNW 12.9 0.0
16:45 10.9 85.0 1024.5 1.6 SSW 9.7 0.0
16:50 10.7 85.0 1024.7 1.6 WNW 8.0 0.0
16:55 10.6 86.0 1024.7 0.0 WNW 6.4 0.0
17:00 10.4 86.0 1024.8 3.2 NW 8.0 0.0
17:05 10.2 87.0 1024.8 6.4 W 8.0 0.0
17:15 10.1 87.0 1024.9 4.8 W 11.3 0.0
17:20 9.9 88.0 1024.9 1.6 W 11.3 0.0
17:25 9.8 89.0 1025.0 1.6 WSW 11.3 0.0
17:30 9.8 89.0 1025.0 1.6 WSW 14.5 0.0
17:35 9.8 89.0 1024.9 3.2 S 14.5 0.0
17:40 9.8 89.0 1025.0 3.2 WNW 9.7 0.0
17:45 9.8 90.0 1025.0 1.6 NNW 12.9 0.0
17:50 9.8 89.0 1025.0 9.7 NNW 12.9 0.0
17:55 9.9 90.0 1025.1 1.6 W 12.9 0.0
18:00 9.8 90.0 1025.1 11.3 W 12.9 0.0
18:05 9.9 90.0 1025.2 1.6 SSW 12.9 0.0
18:10 9.9 90.0 1025.2 1.6 W 11.3 0.0
18:15 9.9 90.0 1025.1 4.8 NW 11.3 0.0
18:20 10.0 90.0 1025.2 1.6 NNW 11.3 0.0
18:25 9.9 90.0 1025.3 3.2 W 8.0 0.0
18:30 10.0 90.0 1025.3 0.0 NNW 8.0 0.0
18:35 9.9 89.0 1025.4 3.2 W 8.0 0.0
18:40 9.8 90.0 1025.4 3.2 W 8.0 0.0
18:45 9.8 90.0 1025.5 0.0 WSW 8.0 0.0
18:50 9.7 90.0 1025.4 1.6 WSW 4.8 0.0
18:55 9.6 90.0 1025.4 0.0 WNW 6.4 0.0
19:00 9.6 91.0 1025.4 0.0 WNW 6.4 0.0
19:05 9.5 90.0 1025.3 6.4 NW 8.0 0.0
19:10 9.4 91.0 1025.3 0.0 WNW 9.7 0.0
19:15 9.4 91.0 1025.4 1.6 NW 9.7 0.0
19:20 9.4 91.0 1025.4 1.6 W 4.8 0.0
19:25 9.3 91.0 1025.4 4.8 WSW 6.4 0.0
19:30 9.3 91.0 1025.4 1.6 W 12.9 0.0
19:35 9.3 92.0 1025.4 1.6 WNW 12.9 0.0
19:40 9.4 92.0 1025.3 1.6 SW 11.3 0.0
19:40 9.6 92.0 1025.2 9.7 W 11.3 0.0
19:50 9.8 92.0 1025.3 3.2 W 11.3 0.0
19:55 9.9 91.0 1025.3 1.6 SW 11.3 0.0
20:00 10.1 91.0 1025.3 4.8 WSW 8.0 0.0
20:05 10.1 90.0 1025.3 4.8 WSW 8.0 0.0
20:10 10.1 90.0 1025.4 4.8 W 11.3 0.0
20:15 10.1 89.0 1025.4 1.6 SW 11.3 0.0
20:20 10.2 88.0 1025.4 3.2 SSW 11.3 0.0
20:25 10.2 88.0 1025.4 4.8 WSW 8.0 0.0
20:30 10.2 88.0 1025.5 4.8 SSW 11.3 0.0
20:35 10.1 88.0 1025.5 3.2 WSW 11.3 0.0
20:40 10.1 88.0 1025.5 6.4 WSW 9.7 0.0
20:45 10.1 88.0 1025.5 3.2 W 9.7 0.0
20:50 10.0 88.0 1025.5 3.2 SW 11.3 0.0
20:55 10.1 88.0 1025.6 14.5 SW 14.5 0.0
21:00 10.1 88.0 1025.5 3.2 W 14.5 0.0
21:05 10.1 87.0 1025.6 4.8 W 12.9 0.0
21:10 10.1 87.0 1025.7 4.8 WSW 8.0 0.0
21:15 10.2 87.0 1025.7 3.2 SW 12.9 0.0
21:20 10.2 86.0 1025.7 4.8 WSW 12.9 0.0
21:25 10.3 86.0 1025.6 4.8 WSW 11.3 0.0
21:25 10.3 85.0 1025.6 4.8 WSW 11.3 0.0
21:35 10.3 85.0 1025.5 4.8 W 12.9 0.0
21:40 10.4 85.0 1025.5 3.2 WSW 14.5 0.0
21:45 10.4 85.0 1025.4 4.8 W 14.5 0.0
21:50 10.5 85.0 1025.5 3.2 WSW 12.9 0.0
21:55 10.6 85.0 1025.5 4.8 NNE 16.1 0.0
22:00 10.6 84.0 1025.5 4.8 SW 12.9 0.0
22:05 10.6 84.0 1025.5 4.8 WSW 11.3 0.0
Màxima 13.8 97.0 1025.7 14.5 SW 20.9 0.2
Mínima 8.1 77.0 1022.2
Total 0.2